Date,TemperatureHighF,TemperatureAvgF,TemperatureLowF,DewpointHighF,DewpointAvgF,DewpointLowF,HumidityHigh,HumidityAvg,HumidityLow,PressureMaxIn,PressureMinIn,WindSpeedMaxMPH,WindSpeedAvgMPH,GustSpeedMaxMPH,PrecipitationSumIn
2012-1-1,83.6,69.6,59.8,24.4,9.1,0.3,14,10,5,30.23,30.13,14,2,19,0.00
2012-1-2,84.7,70.1,59.9,28.5,12.3,2.6,17,11,6,30.26,30.16,26,4,26,0.00
2012-1-3,83.4,68.9,57.0,32.3,14.9,4.8,21,13,5,30.25,30.17,11,1,13,0.00
2012-1-4,85.9,71.3,61.5,33.5,12.9,5.2,25,11,5,30.30,30.21,22,3,23,0.00
2012-1-5,82.2,67.7,57.2,26.5,13.3,3.8,22,13,5,30.23,30.03,17,1,18,0.00
2012-1-6,76.5,62.3,53.1,31.4,21.0,13.6,35,21,11,30.06,29.98,10,1,11,0.00
2012-1-7,70.1,57.0,47.9,30.0,23.1,5.6,40,27,16,30.06,29.94,11,1,13,0.00
2012-1-8,69.6,54.3,42.6,18.9,8.1,-2.7,33,17,7,30.17,30.06,15,1,18,0.00
2012-1-9,71.6,57.5,46.0,24.9,13.7,0.9,28,18,11,30.20,30.13,13,2,15,0.00
2012-1-10,70.6,56.7,47.0,27.7,20.8,16.5,35,25,13,30.17,30.04,8,0,9,0.00
2012-1-11,70.8,58.0,48.3,35.7,23.2,15.5,40,27,15,30.07,29.98,12,0,15,0.00
2012-1-12,72.3,59.6,47.3,25.7,10.7,-7.0,26,15,8,30.07,29.98,11,1,16,0.00
2012-1-13,72.7,56.9,45.5,10.6,-5.8,-24.1,18,8,2,30.18,30.07,15,1,15,0.00
2012-1-14,67.6,55.6,47.3,29.3,-1.0,-20.6,31,11,4,30.17,30.10,9,0,13,0.00
2012-1-15,63.2,52.8,44.8,41.6,23.6,1.8,81,37,12,30.15,30.03,16,1,18,0.06
2012-1-16,51.0,45.3,39.5,44.3,39.6,34.4,89,81,59,30.18,30.06,20,1,22,0.09
2012-1-17,55.3,43.4,35.0,37.2,32.4,21.5,86,67,40,30.26,30.17,8,0,10,0.00
2012-1-18,67.8,51.8,38.8,26.0,15.9,5.6,51,25,12,30.27,30.15,6,0,10,0.00
2012-1-19,70.6,54.7,43.1,30.7,17.7,5.0,51,25,13,30.15,30.01,14,1,14,0.00
2012-1-20,64.2,50.3,40.6,39.9,32.6,23.6,81,52,27,30.09,30.02,9,0,11,0.00
2012-1-21,55.7,48.4,40.3,49.8,41.8,32.9,88,78,58,30.08,29.97,22,2,30,0.22
2012-1-22,57.0,46.5,37.0,39.9,36.0,30.0,81,67,43,30.16,30.06,10,0,13,0.00
2012-1-23,50.1,47.8,44.5,45.8,39.4,30.2,87,74,47,30.12,29.90,16,1,22,0.09
2012-1-24,63.4,50.7,40.1,44.3,36.9,19.0,87,62,27,30.23,30.00,10,0,13,0.00
2012-1-25,77.2,60.0,44.5,35.2,29.2,21.1,52,32,18,30.23,30.12,10,0,13,0.00
2012-1-26,82.2,66.2,55.7,37.2,27.9,20.7,43,25,11,30.16,30.02,13,1,16,0.00
2012-1-27,74.4,58.6,49.4,42.2,28.0,8.1,55,34,14,30.13,29.99,13,0,14,0.00
2012-1-28,75.8,58.3,43.5,17.1,0.7,-23.9,28,12,2,30.23,30.11,17,2,21,0.00
2012-1-29,76.1,60.2,48.5,20.2,-0.0,-13.5,18,9,3,30.22,30.08,17,1,18,0.00
2012-1-30,71.1,57.5,49.4,17.9,9.4,2.5,24,15,7,30.09,29.97,17,1,18,0.00
2012-1-31,68.9,54.1,43.3,34.9,15.3,-7.0,49,25,5,30.15,29.99,11,1,14,0.00
2012-2-1,69.4,54.7,44.9,41.6,26.1,13.8,71,37,13,30.17,30.03,14,1,16,0.00
2012-2-2,70.1,54.5,43.9,36.6,23.3,8.1,70,34,11,30.07,29.90,28,1,28,0.00
2012-2-3,69.1,53.6,44.5,17.4,7.3,2.0,25,16,8,30.04,29.97,23,2,24,0.00
2012-2-4,69.9,54.8,42.6,18.7,12.9,6.6,28,19,11,30.06,29.99,24,2,24,0.00
2012-2-5,70.1,56.6,45.2,22.0,15.3,10.5,32,20,11,30.07,29.97,22,2,22,0.00
2012-2-6,69.8,58.1,48.2,24.3,16.5,12.0,32,20,13,30.04,29.95,27,6,29,0.00
2012-2-7,61.5,55.5,50.4,42.4,23.4,7.8,72,33,14,29.99,29.88,28,4,32,0.00
2012-2-8,73.5,57.1,45.5,38.9,30.1,23.1,65,39,17,30.17,29.98,11,2,14,0.00
2012-2-9,78.8,62.6,51.0,29.8,24.0,16.4,35,24,10,30.21,30.12,16,2,18,0.00
2012-2-10,76.1,60.9,49.9,32.3,26.5,22.6,50,28,15,30.17,30.06,16,2,22,0.00
2012-2-11,60.1,50.8,44.1,40.5,37.2,29.9,78,61,41,30.08,29.92,18,3,25,0.00
2012-2-12,56.7,48.6,45.7,41.4,39.7,36.0,81,72,48,30.01,29.93,11,0,16,0.00
2012-2-13,53.6,46.2,38.6,44.5,39.1,31.7,85,76,60,30.01,29.89,24,3,33,0.06
2012-2-14,56.0,45.9,37.8,39.2,35.5,27.3,84,69,35,30.06,29.87,9,0,13,0.02
2012-2-15,49.4,43.0,37.0,41.7,36.6,32.9,86,78,62,30.06,29.88,23,2,27,0.64
2012-2-16,63.5,48.9,36.5,40.2,28.3,15.5,85,52,21,30.10,29.93,14,1,22,0.24
2012-2-17,68.4,52.5,40.6,28.9,21.0,6.1,50,32,9,30.16,30.07,11,1,13,0.00
2012-2-18,64.3,51.7,43.5,42.3,28.6,11.0,81,45,13,30.12,29.99,13,1,17,0.00
2012-2-19,56.7,48.6,43.5,41.3,38.5,32.4,82,69,41,30.07,29.96,14,0,18,0.00
2012-2-20,59.2,47.7,38.0,39.0,34.7,31.1,83,62,38,30.09,30.02,10,0,13,0.00
2012-2-21,71.5,55.4,41.3,31.9,23.7,12.5,64,33,11,30.15,30.04,12,0,15,0.00
2012-2-22,79.4,62.2,48.8,34.0,27.4,20.8,43,28,13,30.14,29.95,15,0,15,0.00
2012-2-23,80.7,65.0,53.3,33.3,25.2,15.4,36,23,12,29.96,29.84,14,0,15,0.00
2012-2-24,80.1,65.1,51.6,35.4,21.4,9.9,43,20,7,30.13,29.96,13,0,14,0.00
2012-2-25,73.5,55.1,37.8,41.9,33.4,26.5,84,48,18,30.12,29.95,13,1,16,0.00
2012-2-26,68.3,54.0,43.5,42.5,29.7,17.8,85,44,15,29.95,29.85,15,2,21,0.00
2012-2-27,51.9,43.0,33.1,41.3,35.4,29.4,87,75,48,29.92,29.81,33,3,40,0.73
2012-2-28,53.6,42.1,34.4,34.7,31.7,27.2,88,68,39,30.24,29.92,14,2,17,0.01
2012-2-29,57.2,45.6,36.6,38.7,33.5,27.0,79,64,36,30.23,30.14,13,1,15,0.00
2012-3-1,59.2,48.8,43.6,41.2,38.4,35.2,80,68,45,30.15,30.02,16,2,21,0.00
2012-3-2,67.4,51.3,37.9,37.5,21.6,-5.8,83,41,8,30.26,30.04,24,1,24,0.00
2012-3-3,77.2,59.8,43.6,21.2,11.4,3.4,25,16,7,30.25,30.18,18,2,22,0.00
2012-3-4,84.7,68.2,54.2,30.6,16.9,12.1,24,15,7,30.20,30.03,21,2,24,0.00
2012-3-5,80.7,66.5,55.0,41.1,20.4,6.3,35,18,7,30.06,29.97,10,1,13,0.00
2012-3-6,56.7,49.9,37.2,42.5,33.0,15.2,82,56,24,29.97,29.79,26,6,32,0.18
2012-3-7,58.0,44.4,32.2,31.9,19.1,7.2,82,41,16,30.12,29.84,14,1,18,2.18
2012-3-8,72.7,56.0,39.2,25.0,12.6,6.6,37,20,8,30.26,30.12,20,1,21,0.00
2012-3-9,79.0,62.5,47.4,20.8,12.4,-3.3,25,15,5,30.26,30.06,17,1,18,0.00
2012-3-10,76.0,60.3,46.1,35.1,15.7,5.6,61,20,7,30.05,29.95,19,2,24,0.00
2012-3-11,68.1,51.3,37.3,41.3,34.1,10.8,88,58,12,30.04,29.96,17,2,19,0.00
2012-3-12,69.4,51.4,35.5,39.9,34.9,24.5,87,59,19,30.03,29.95,12,0,14,0.00
2012-3-13,67.4,50.9,36.3,43.1,36.2,25.7,87,61,22,30.06,29.99,14,1,18,0.00
2012-3-14,70.9,54.1,41.5,44.8,38.6,30.4,81,60,23,30.14,30.04,17,1,18,0.00
2012-3-15,73.2,56.6,44.3,44.7,39.1,26.1,80,57,20,30.14,30.02,13,2,19,0.00
2012-3-16,68.6,53.1,41.9,47.4,43.2,37.7,89,71,38,30.07,29.92,16,2,16,0.00
2012-3-17,54.2,46.9,38.5,47.2,42.2,33.5,87,84,71,29.94,29.70,29,4,36,0.51
2012-3-18,48.2,39.6,32.9,36.7,31.4,26.8,88,73,47,29.92,29.67,34,7,38,0.31
2012-3-19,56.3,44.4,36.8,37.5,30.7,16.1,83,62,22,30.02,29.87,14,1,19,0.01
2012-3-20,68.4,52.6,38.8,36.9,29.8,21.8,82,47,19,30.12,30.02,10,1,13,0.00
2012-3-21,77.4,60.4,46.5,39.5,33.4,27.0,59,39,18,30.12,29.95,14,1,15,0.00
2012-3-22,76.7,62.3,51.7,40.5,36.3,31.1,58,40,20,29.98,29.89,15,2,19,0.00
2012-3-23,70.4,55.1,45.5,46.6,41.4,36.5,87,62,30,30.05,29.95,14,2,18,0.00
2012-3-24,68.1,55.0,45.2,46.9,42.6,33.6,82,65,39,30.00,29.90,12,1,14,0.00
2012-3-25,62.1,48.7,42.8,45.1,40.3,32.5,88,75,35,29.95,29.82,25,3,32,0.30
2012-3-26,61.3,49.7,42.9,46.8,40.0,35.3,88,71,42,30.09,29.95,15,1,16,0.29
2012-3-27,67.6,52.7,41.1,46.7,37.2,22.2,79,59,19,30.07,30.00,13,1,16,0.00
2012-3-28,68.8,53.9,42.3,45.1,37.0,18.4,81,58,17,30.09,30.00,12,0,14,0.00
2012-3-29,73.0,57.7,46.1,47.5,41.3,34.2,81,57,25,30.05,29.95,17,1,18,0.00
2012-3-30,75.1,60.5,47.9,49.4,44.5,40.1,79,58,32,30.03,29.94,15,1,18,0.00
2012-3-31,58.1,51.3,46.0,49.2,44.5,40.7,89,78,63,30.03,29.96,15,2,19,0.00
2012-4-1,63.7,50.5,42.2,45.1,35.7,24.4,87,61,24,30.03,29.95,16,2,26,0.02
2012-4-2,72.8,56.1,42.1,34.2,23.3,6.3,64,33,9,30.03,29.90,13,1,16,0.00
2012-4-3,77.6,62.4,50.5,30.6,22.8,14.8,41,23,10,30.02,29.93,14,2,21,0.00
2012-4-4,76.5,61.4,50.5,34.0,25.1,17.7,41,26,11,30.01,29.89,14,1,18,0.00
2012-4-5,52.3,49.2,46.7,26.5,24.0,21.1,40,37,34,29.92,29.87,7,0,7,0.00
2012-4-9,83.6,68.4,51.0,34.0,23.5,0.9,44,23,5,30.00,29.95,23,3,26,0.00
2012-4-10,74.2,57.3,47.0,45.0,31.7,15.2,78,41,17,29.99,29.84,20,2,24,0.00
2012-4-11,56.2,49.7,45.1,48.2,42.5,39.3,87,76,57,30.10,29.89,20,3,26,0.30
2012-4-12,62.4,50.6,42.9,41.6,38.6,31.9,86,66,33,30.16,30.05,14,1,22,0.00
2012-4-13,54.2,46.7,41.1,43.9,40.1,35.5,87,78,58,30.05,29.76,25,3,36,0.47
2012-4-14,51.7,45.3,40.1,36.4,34.0,30.1,82,65,48,30.07,29.77,17,4,23,0.00
2012-4-15,69.8,53.4,39.5,41.9,35.8,30.5,76,54,24,30.15,30.07,12,1,15,0.00
2012-4-16,82.0,64.3,48.8,41.9,35.7,26.2,69,39,14,30.15,30.06,22,1,25,0.00
2012-4-17,84.7,68.3,54.7,40.3,33.8,23.0,50,30,12,30.10,29.99,14,1,22,0.00
2012-4-18,81.6,67.9,55.1,43.1,35.5,25.4,51,32,13,30.03,29.94,14,1,16,0.00
2012-4-19,86.5,74.9,61.8,49.7,44.7,38.9,63,36,20,30.00,29.92,12,1,15,0.00
2012-4-20,98.0,77.2,60.4,52.1,40.4,27.2,64,32,9,30.01,29.93,22,1,24,0.00
2012-4-21,96.3,77.5,62.6,51.8,40.4,27.9,65,30,10,30.00,29.90,16,1,23,0.00
2012-4-22,89.5,71.0,57.8,53.9,49.0,33.3,77,50,15,29.98,29.92,18,2,20,0.00
2012-4-23,58.9,55.1,52.3,52.6,50.5,48.5,89,84,75,30.06,29.98,10,0,13,0.02
2012-4-24,80.3,62.0,47.7,49.7,45.1,27.9,88,60,16,30.07,29.96,7,0,10,0.00
2012-4-25,88.8,65.8,55.7,52.0,46.4,28.9,83,56,13,30.04,29.82,26,3,31,0.02
2012-4-26,64.0,55.8,50.2,51.2,47.1,41.4,86,74,45,30.06,29.84,19,2,24,0.47
2012-4-27,75.8,60.0,51.6,50.8,47.5,43.7,84,66,33,30.07,29.94,14,1,16,0.00
2012-4-28,85.1,65.2,50.5,50.4,44.3,25.4,85,55,12,29.98,29.79,19,2,24,0.00
2012-4-29,85.3,65.9,51.7,54.2,46.0,38.9,82,53,21,29.95,29.84,16,2,18,0.00
2012-4-30,81.2,63.3,52.2,54.4,51.6,48.7,89,69,35,29.98,29.93,12,2,0,0.00
2012-5-1,65.4,58.0,53.6,52.7,50.3,48.6,86,76,55,29.96,29.88,7,0,0,0.00
2012-5-2,60.4,55.2,51.6,48.8,47.0,45.3,87,74,59,29.98,29.89,3,0,0,0.00
2012-5-3,71.9,59.7,52.2,49.5,47.1,44.3,86,66,38,30.05,29.96,9,0,0,0.00
2012-5-4,74.6,62.3,53.8,49.4,46.1,37.8,81,59,27,30.07,30.01,10,2,0,0.00
2012-5-5,80.3,62.8,48.2,48.9,43.6,33.4,79,54,19,30.03,29.94,13,2,0,0.00
2012-5-6,79.9,64.3,52.5,48.2,44.4,40.0,75,51,25,30.01,29.93,13,2,0,0.00
2012-5-7,87.8,67.9,51.2,46.0,33.9,2.0,76,36,4,29.99,29.89,21,2,0,0.00
2012-5-8,89.5,72.5,55.0,34.9,17.1,-4.5,36,17,3,29.96,29.87,8,1,0,0.00
2012-5-9,94.4,76.9,62.3,38.8,26.9,15.0,28,17,6,29.94,29.84,17,1,0,0.00
2012-5-10,84.3,67.8,53.1,49.9,40.6,29.0,80,41,15,29.94,29.88,13,1,0,0.00
2012-5-11,80.3,63.0,45.5,49.9,45.0,34.8,89,58,20,30.03,29.90,8,0,13,0.00
2012-5-12,88.0,67.8,50.5,50.1,44.7,29.6,81,50,14,30.09,30.00,10,0,16,0.00
2012-5-13,90.7,71.0,55.9,52.4,42.1,27.6,68,40,13,30.09,29.99,9,0,13,0.00
2012-5-14,89.5,70.3,55.4,51.4,42.3,24.6,74,42,10,30.06,29.95,14,0,20,0.00
2012-5-15,86.3,68.2,50.4,44.3,36.0,19.3,64,35,10,29.98,29.88,18,0,20,0.00
2012-5-16,97.8,75.9,56.6,49.8,39.3,25.6,52,30,9,29.94,29.84,10,0,17,0.00
2012-5-17,90.3,72.7,56.7,51.5,45.1,35.3,81,41,15,29.90,29.82,16,2,23,0.00
2012-5-18,77.4,62.9,54.2,51.6,47.3,42.3,82,59,32,29.93,29.84,14,2,16,0.00
2012-5-19,89.5,67.8,50.2,52.6,46.8,34.7,84,54,15,29.95,29.89,12,1,17,0.00
2012-5-20,98.5,76.9,57.8,51.7,41.8,23.5,75,37,7,29.99,29.89,17,1,24,0.00
2012-5-21,96.8,79.3,66.6,44.8,33.4,3.4,42,21,3,29.98,29.93,17,1,21,0.00
2012-5-22,91.0,75.1,62.7,43.0,33.8,25.2,35,23,13,29.98,29.85,13,1,16,0.00
2012-5-23,82.6,67.6,55.9,52.2,45.4,34.7,81,47,26,29.85,29.73,10,0,13,0.00
2012-5-24,79.4,62.6,55.3,51.8,49.9,45.4,83,66,32,29.76,29.67,14,0,14,0.00
2012-5-25,61.5,54.9,46.4,51.6,46.2,37.9,89,74,46,29.85,29.72,28,6,33,0.06
2012-5-26,64.7,53.3,45.5,41.4,38.5,33.2,77,59,33,30.04,29.84,19,2,22,0.00
2012-5-27,82.2,61.4,43.2,45.8,39.2,31.5,80,50,18,30.04,29.94,16,1,20,0.00
2012-5-28,87.8,71.5,55.9,42.3,33.8,23.3,52,28,10,29.99,29.92,20,2,22,0.00
2012-5-29,87.6,71.4,57.8,43.2,32.1,21.9,43,26,10,30.03,29.95,16,1,21,0.00
2012-5-30,88.6,70.8,55.6,46.0,38.3,29.0,50,32,16,30.03,29.97,16,1,21,0.00
2012-5-31,101.7,75.7,55.1,51.8,43.3,26.0,65,37,7,30.00,29.84,18,2,21,0.00
2012-6-1,96.1,77.0,61.3,49.3,38.3,15.4,57,29,6,29.89,29.84,21,2,22,0.00
2012-6-2,89.3,69.9,55.3,53.0,45.3,25.1,74,45,18,29.91,29.86,15,2,21,0.00
2012-6-3,85.9,68.6,53.3,52.5,47.7,39.8,82,53,21,29.95,29.87,10,1,14,0.00
2012-6-4,81.6,65.1,52.9,54.6,50.9,44.6,85,63,29,30.00,29.92,16,1,23,0.00
2012-6-5,78.3,63.5,55.0,52.2,48.2,40.4,83,61,30,29.98,29.89,17,1,21,0.00
2012-6-6,85.9,65.7,50.8,47.4,42.3,27.7,80,49,13,29.93,29.79,16,1,20,0.00
2012-6-7,92.3,73.5,56.0,50.0,39.6,26.2,60,33,10,29.91,29.84,18,1,23,0.00
2012-6-8,88.6,71.2,57.2,50.2,45.5,32.9,68,44,16,29.90,29.83,14,1,16,0.00
2012-6-9,81.1,66.0,53.1,52.5,46.8,36.4,77,54,22,29.88,29.79,12,1,14,0.00
2012-6-10,86.5,67.5,52.8,49.7,45.4,36.3,79,50,21,29.95,29.84,13,1,16,0.00
2012-6-11,91.8,71.2,53.3,53.1,47.9,41.1,79,49,19,30.01,29.92,13,1,21,0.00
2012-6-12,95.1,73.7,55.7,52.9,47.9,35.2,77,46,13,30.00,29.90,15,1,18,0.00
2012-6-13,89.5,72.1,57.0,51.7,40.7,21.9,66,38,9,29.93,29.81,13,1,20,0.00
2012-6-14,85.3,66.0,51.1,51.4,45.7,26.1,86,55,12,29.87,29.81,13,1,16,0.00
2012-6-15,82.4,64.4,51.1,53.1,50.0,45.8,85,63,32,29.87,29.81,10,0,12,0.00
2012-6-16,98.5,71.2,52.0,53.4,46.2,15.4,86,52,5,29.94,29.80,18,1,30,0.00
2012-6-17,99.4,79.5,59.8,52.3,32.3,15.8,68,24,6,29.95,29.89,14,2,18,0.00
2012-6-18,93.8,77.6,63.1,47.0,35.2,21.8,43,23,10,29.94,29.86,16,1,18,0.00
2012-6-19,89.3,70.6,51.7,51.8,43.2,31.9,85,42,15,29.93,29.84,13,0,13,0.00
2012-6-20,90.3,70.8,53.1,51.4,43.6,34.9,72,43,15,29.89,29.84,14,1,17,0.00
2012-6-21,89.3,71.7,56.0,51.9,44.1,25.2,67,42,10,29.94,29.88,14,2,20,0.00
2012-6-22,88.6,69.8,50.8,53.7,46.2,32.6,85,49,16,29.93,29.84,16,1,18,0.00
2012-6-23,88.2,70.6,54.4,51.3,40.1,14.1,75,39,7,29.91,29.82,16,2,18,0.00
2012-6-24,89.0,71.3,55.7,46.8,39.3,31.0,55,33,17,30.01,29.90,16,2,23,0.00
2012-6-25,88.6,70.3,54.4,46.5,32.5,12.2,63,32,6,30.03,29.93,17,1,21,0.00
2012-6-26,92.1,73.0,53.6,36.1,26.8,16.9,37,20,7,29.97,29.83,16,1,23,0.00
2012-6-27,93.8,74.6,61.3,40.1,29.4,14.2,34,21,6,29.98,29.85,14,1,21,0.00
2012-6-28,96.3,77.8,62.1,38.9,28.5,2.1,37,20,3,30.06,29.97,14,1,0,0.00
2012-6-29,94.3,77.4,61.6,38.7,28.0,6.2,36,19,4,30.06,29.96,13,2,0,0.00
2012-6-30,93.2,75.7,61.2,37.8,29.3,16.8,32,20,7,30.00,29.90,12,1,0,0.00
2012-7-1,89.7,73.0,57.3,48.5,41.6,35.4,50,34,16,29.92,29.84,13,1,0,0.00
2012-7-2,91.4,72.9,58.2,52.7,47.1,42.5,67,42,20,29.92,29.85,9,1,0,0.00
2012-7-3,87.6,70.5,55.6,55.6,52.6,49.5,81,56,29,29.93,29.86,9,1,0,0.00
2012-7-4,85.7,74.6,58.8,57.8,52.3,43.1,81,49,28,29.96,29.89,11,2,17,0.00
2012-7-5,88.6,69.5,54.7,56.2,53.5,49.6,86,61,30,30.01,29.92,10,1,12,0.00
2012-7-6,92.7,73.6,56.6,56.7,48.3,32.8,82,48,13,30.03,29.96,20,2,21,0.00
2012-7-7,95.4,78.1,62.6,47.0,32.4,16.3,49,23,6,30.03,29.97,20,2,26,0.00
2012-7-8,99.2,82.0,66.4,35.7,24.0,14.7,23,13,5,30.03,29.96,16,1,21,0.00
2012-7-9,106.2,85.9,70.9,44.5,31.8,14.3,31,16,4,30.00,29.91,17,1,22,0.00
2012-7-10,106.5,87.9,71.8,52.0,37.9,25.1,44,20,7,29.97,29.84,11,1,14,0.00
2012-7-11,105.1,84.9,69.9,52.1,44.7,31.4,50,28,9,29.94,29.84,15,0,18,0.00
2012-7-12,90.7,80.5,69.9,66.6,56.4,45.7,61,44,26,29.95,29.86,23,1,23,0.00
2012-7-13,87.6,78.9,69.8,66.3,61.6,54.2,83,58,35,29.98,29.91,9,0,10,0.07
2012-7-14,94.9,80.4,67.4,61.9,53.1,44.7,68,42,19,29.99,29.91,20,2,23,0.00
2012-7-15,90.7,74.6,61.0,55.5,43.1,16.9,69,38,7,29.99,29.92,16,2,21,0.00
2012-7-16,84.5,66.4,51.7,52.5,45.5,39.1,75,51,22,29.98,29.93,13,1,20,0.00
2012-7-17,84.5,65.6,50.7,50.7,44.8,38.1,85,54,20,30.01,29.95,14,1,18,0.00
2012-7-18,92.5,74.7,58.4,44.9,38.1,19.0,54,30,8,30.01,29.95,10,0,13,0.00
2012-7-19,97.3,81.6,69.3,44.4,39.3,32.8,35,23,13,30.03,29.94,21,2,23,0.00
2012-7-20,98.7,82.8,69.1,51.7,45.2,41.1,44,28,15,30.04,29.95,16,2,21,0.00
2012-7-21,101.5,83.6,69.4,57.0,49.4,38.6,53,34,12,30.01,29.90,18,2,22,0.00
2012-7-22,99.0,80.7,67.3,55.6,51.6,46.3,59,40,19,30.01,29.92,15,1,18,0.00
2012-7-23,94.9,78.8,65.3,56.2,49.3,36.0,67,40,18,30.02,29.95,16,1,20,0.00
2012-7-24,93.6,76.7,63.4,52.0,39.3,15.0,56,31,6,30.03,29.95,14,1,20,0.00
2012-7-25,93.2,75.6,58.6,44.5,30.0,15.2,44,21,6,30.04,29.94,15,1,15,0.00
2012-7-26,94.9,75.2,56.2,47.3,33.4,7.5,51,26,4,30.03,29.94,13,0,17,0.00
2012-7-27,93.4,74.1,56.7,50.1,37.0,5.9,68,32,4,30.02,29.95,12,1,18,0.00
2012-7-28,95.9,76.5,60.1,40.2,32.0,17.8,45,22,7,30.02,29.96,14,1,20,0.00
2012-7-29,97.5,78.3,63.1,44.3,35.4,7.4,39,24,4,30.02,29.92,18,1,20,0.00
2012-7-30,94.9,77.1,64.7,57.8,48.1,40.2,55,38,22,30.02,29.93,17,1,20,0.00
2012-7-31,91.0,77.5,68.9,57.4,48.3,30.7,62,39,19,30.06,29.99,15,1,17,0.00
2012-8-1,93.8,78.8,63.9,49.9,42.5,26.7,51,30,14,30.09,29.99,18,2,23,0.00
2012-8-2,95.1,79.2,65.2,49.6,44.6,39.3,47,31,17,30.04,29.93,13,2,16,0.00
2012-8-3,94.3,76.1,61.8,52.9,48.8,42.0,60,41,17,29.95,29.86,11,1,13,0.00
2012-8-4,92.9,75.5,60.1,57.1,53.0,48.1,78,49,23,29.98,29.90,11,1,12,0.00
2012-8-5,101.7,81.7,65.6,57.0,52.2,42.2,68,41,14,30.04,29.95,15,2,20,0.00
2012-8-6,105.7,85.1,72.3,69.1,53.3,42.4,73,37,12,30.05,29.96,16,0,21,0.24
2012-8-7,105.7,89.3,78.3,59.2,47.5,39.8,40,25,13,30.01,29.92,16,1,22,0.00
2012-8-8,106.8,89.3,77.4,55.0,47.3,38.9,40,25,12,29.98,29.90,18,2,21,0.00
2012-8-9,107.7,90.9,77.7,58.2,47.4,40.2,37,24,11,29.98,29.87,14,1,16,0.00
2012-8-10,104.1,89.6,79.8,58.6,52.9,41.1,47,30,14,29.91,29.79,29,1,42,0.00
2012-8-11,105.4,83.9,76.1,67.5,56.2,44.7,70,41,14,29.92,29.82,25,1,29,0.06
2012-8-12,103.3,87.1,75.8,60.1,53.8,41.2,49,33,16,29.92,29.84,24,1,29,0.00
2012-8-13,104.6,88.2,77.9,58.6,52.1,43.0,49,31,14,29.91,29.84,20,0,25,0.00
2012-8-14,102.8,86.7,74.9,56.9,49.3,36.7,47,30,12,29.92,29.82,21,1,25,0.00
2012-8-15,97.1,82.3,71.5,54.2,48.3,42.4,47,32,17,29.93,29.86,14,1,18,0.00
2012-8-16,100.4,82.9,73.7,71.4,53.6,41.4,74,38,16,29.99,29.89,22,1,31,0.07
2012-8-17,94.9,83.5,76.1,71.5,61.6,54.3,75,49,26,30.00,29.92,34,2,38,0.07
2012-8-18,96.3,82.7,73.3,65.3,59.9,52.8,74,49,25,30.00,29.87,18,1,21,0.00
2012-8-19,99.4,82.1,69.3,58.0,54.0,49.2,62,41,20,29.95,29.85,16,1,18,0.00
2012-8-20,97.1,80.6,67.4,59.5,53.7,47.7,63,42,20,29.97,29.88,16,1,20,0.00
2012-8-21,94.9,78.8,68.1,61.4,57.6,50.1,69,51,24,29.97,29.89,16,1,20,0.00
2012-8-22,90.1,75.8,67.1,62.4,59.8,54.4,75,60,32,29.98,29.90,9,0,17,0.00
2012-8-23,93.2,74.9,62.4,62.2,59.2,52.1,85,62,27,29.98,29.89,15,1,21,0.00
2012-8-24,92.3,75.0,63.1,63.1,59.4,54.3,88,63,29,29.97,29.88,11,0,13,0.00
2012-8-25,89.0,73.2,62.7,61.8,56.0,48.1,86,59,27,29.93,29.86,8,0,13,0.00
2012-8-26,92.5,74.5,58.3,51.1,39.9,18.5,69,36,7,29.99,29.92,13,1,17,0.00
2012-8-27,100.2,81.0,66.1,47.9,38.0,27.3,37,23,10,30.03,29.93,12,0,13,0.00
2012-8-28,97.1,83.7,72.1,60.6,44.1,35.7,39,26,14,29.99,29.90,11,0,14,0.00
2012-8-29,102.8,84.8,74.6,68.1,49.5,40.0,72,31,17,29.93,29.83,21,1,22,0.08
2012-8-30,95.9,77.0,68.4,68.1,59.0,49.2,80,57,22,29.92,29.85,30,1,41,0.15
2012-8-31,94.0,79.9,68.8,62.7,50.1,32.2,73,41,14,29.96,29.90,17,1,20,0.00
2012-9-1,95.1,80.4,64.8,39.8,27.6,12.8,29,16,7,30.01,29.93,23,2,23,0.00
2012-9-2,97.3,78.6,64.5,44.0,23.3,6.7,32,15,4,30.00,29.91,13,0,14,0.00
2012-9-3,99.7,82.5,69.1,39.4,23.9,7.0,25,13,4,30.04,29.95,16,1,18,0.00
2012-9-4,99.4,82.9,69.6,51.1,30.7,13.7,42,16,7,30.06,29.96,18,1,22,0.00
2012-9-5,92.7,78.4,70.3,48.5,37.6,24.8,44,24,11,30.04,29.96,6,0,10,0.00
2012-9-6,93.6,77.7,66.6,53.9,47.0,37.8,54,35,21,30.04,29.95,13,0,17,0.00
2012-9-7,92.7,77.9,66.4,59.5,54.0,47.0,62,46,22,30.07,29.98,11,0,13,0.00
2012-9-8,100.7,81.7,68.8,58.9,54.3,46.8,64,42,18,30.02,29.89,14,1,17,0.00
2012-9-9,97.1,81.5,68.8,65.3,58.7,52.0,86,48,23,30.01,29.88,35,2,40,0.81
2012-9-10,86.5,76.3,69.4,66.6,62.9,58.9,86,65,43,29.97,29.90,16,1,20,0.01
2012-9-11,84.9,74.7,69.1,65.0,63.1,60.2,83,68,44,30.03,29.92,11,0,21,0.00
2012-9-12,92.9,76.3,63.2,63.1,58.8,49.2,85,59,23,30.06,29.96,12,0,17,0.00
2012-9-13,102.0,82.3,68.6,58.6,43.5,25.8,69,34,7,30.08,29.98,13,0,16,0.00
2012-9-14,99.0,85.8,73.5,45.3,31.6,23.3,29,15,7,30.10,30.00,25,3,30,0.00
2012-9-15,98.5,84.8,74.0,43.4,28.9,15.1,25,15,5,30.10,30.00,25,3,29,0.00
2012-9-16,92.5,79.4,70.4,42.0,34.8,29.5,29,20,12,30.09,30.00,16,1,22,0.00
2012-9-17,92.3,76.5,63.7,44.9,37.0,31.4,41,25,13,30.07,29.97,16,0,18,0.00
2012-9-18,97.5,79.0,65.5,51.5,37.9,26.9,50,25,9,30.05,29.96,14,2,20,0.00
2012-9-19,99.7,81.0,66.4,49.5,39.9,26.7,51,26,8,30.03,29.93,18,2,20,0.00
2012-9-20,99.9,84.4,71.6,47.4,35.8,24.7,28,19,7,30.01,29.91,18,2,21,0.00
2012-9-21,99.4,83.1,72.5,48.9,40.0,29.2,36,23,9,29.99,29.89,18,1,21,0.00
2012-9-22,96.1,80.9,71.8,54.7,43.2,34.3,45,27,12,30.01,29.93,12,0,17,0.00
2012-9-23,98.5,83.3,73.9,53.5,36.2,25.8,36,20,8,30.04,29.96,18,1,18,0.00
2012-9-24,90.1,77.4,65.5,46.6,39.5,33.2,42,26,17,30.03,29.94,22,2,28,0.00
2012-9-25,85.3,71.0,61.6,48.9,41.9,32.3,56,37,16,29.97,29.87,18,2,21,0.00
2012-9-26,90.7,71.9,59.6,52.4,46.1,39.2,59,42,17,29.93,29.84,13,1,14,0.00
2012-9-27,94.3,75.2,62.9,51.4,41.5,33.6,61,32,13,29.98,29.90,22,2,26,0.00
2012-9-28,93.8,77.1,63.9,48.4,39.7,30.2,42,28,11,29.98,29.88,15,2,20,0.00
2012-9-29,97.3,79.9,68.4,47.8,41.9,29.0,41,28,9,30.04,29.94,18,2,22,0.00
2012-9-30,102.3,83.3,71.5,46.5,33.0,16.3,33,18,5,30.05,29.95,21,1,28,0.00
2012-10-1,105.1,86.0,73.7,44.1,27.3,12.6,23,13,4,30.03,29.89,14,1,20,0.00
2012-10-2,101.5,86.0,73.5,39.8,26.1,11.2,21,12,4,29.96,29.87,16,1,22,0.00
2012-10-3,92.5,80.4,66.4,42.5,34.2,24.7,37,20,10,30.07,29.96,17,2,20,0.00
2012-10-4,85.9,71.3,61.0,46.6,36.1,23.0,52,29,14,30.12,30.04,6,0,13,0.00
2012-10-5,83.6,67.2,53.6,49.9,42.0,32.7,58,42,19,30.08,29.97,6,0,12,0.00
2012-10-6,83.8,68.3,58.3,52.8,46.5,40.0,67,48,23,30.00,29.92,8,0,10,0.00
2012-10-7,85.3,68.2,58.0,50.5,46.6,37.1,68,49,20,29.97,29.89,11,0,14,0.00
2012-10-8,82.8,67.0,56.3,55.6,47.8,30.1,76,54,16,30.01,29.93,12,0,13,0.00
2012-10-9,77.9,62.4,49.5,52.7,47.5,31.7,85,62,20,30.02,29.93,12,0,13,0.00
2012-10-10,73.5,61.8,55.7,53.3,49.0,39.5,83,65,30,30.01,29.90,15,1,18,0.00
2012-10-11,64.5,54.8,49.9,49.8,45.5,40.3,84,72,43,29.98,29.90,17,1,20,0.11
2012-10-12,64.3,55.9,48.5,48.2,44.8,40.3,81,67,47,30.15,29.98,7,0,9,0.00
2012-10-13,79.8,62.6,47.9,49.3,42.2,35.1,78,51,21,30.18,30.06,8,0,10,0.00
2012-10-14,91.2,74.3,61.5,44.4,35.2,28.7,41,26,11,30.12,29.98,11,1,13,0.00
2012-10-15,92.1,76.4,65.0,41.3,31.7,17.7,32,21,7,30.03,29.90,14,1,17,0.00
2012-10-16,94.0,77.5,65.6,42.9,31.8,18.8,31,21,7,29.96,29.80,11,1,14,0.00
2012-10-17,97.5,80.6,68.6,47.0,30.6,21.1,33,17,7,29.95,29.82,14,1,18,0.00
2012-10-18,81.6,70.8,59.8,57.3,49.2,30.9,78,50,20,30.09,29.95,11,1,14,0.00
2012-10-19,86.7,68.7,55.9,58.1,51.4,43.2,81,59,23,30.04,29.90,12,1,13,0.00
2012-10-20,72.7,62.7,54.2,57.0,54.4,50.1,88,75,55,29.95,29.86,8,0,12,0.00
2012-10-21,67.3,60.6,57.8,56.3,52.7,49.7,84,76,55,29.94,29.89,15,0,16,0.00
2012-10-22,70.4,60.1,53.5,52.8,48.9,42.7,83,68,39,30.00,29.92,11,1,18,0.00
2012-10-23,67.1,56.5,47.4,48.3,43.7,37.7,83,64,37,29.99,29.92,15,1,18,0.00
2012-10-24,72.0,56.2,44.8,44.7,38.1,30.9,78,54,24,30.06,29.97,9,0,10,0.00
2012-10-25,80.7,63.5,49.9,39.1,23.2,12.9,62,25,8,30.06,29.96,12,0,13,0.00
2012-10-26,83.0,66.7,54.8,30.1,17.0,7.1,25,16,7,30.07,29.96,11,0,13,0.00
2012-10-27,90.3,71.1,58.3,32.6,11.0,4.2,25,10,4,29.98,29.88,16,1,18,0.00
2012-10-28,89.0,72.1,61.6,34.2,14.8,3.9,24,12,4,30.07,29.95,14,1,16,0.00
2012-10-29,87.2,70.5,58.7,31.4,20.8,7.5,25,16,6,30.12,30.03,9,0,12,0.00
2012-10-30,87.0,70.1,58.6,35.0,23.6,10.4,30,19,6,30.09,29.98,13,0,13,0.00
2012-10-31,81.8,66.5,56.5,41.9,30.4,18.3,48,27,14,30.04,29.98,11,0,11,0.00
2012-11-1,76.8,61.3,51.1,45.9,37.9,24.6,74,45,16,30.01,29.94,7,0,9,0.00
2012-11-2,73.5,57.0,43.6,45.2,39.3,29.9,81,56,22,30.01,29.92,7,0,9,0.00
2012-11-3,83.8,66.3,54.2,39.2,24.5,12.8,39,22,7,30.09,29.98,12,1,16,0.00
2012-11-4,88.4,70.9,56.9,35.2,19.7,8.0,25,16,5,30.13,30.05,11,0,11,0.00
2012-11-5,90.5,73.6,62.3,33.2,17.7,9.1,22,12,5,30.14,30.04,11,1,13,0.00
2012-11-6,88.2,72.9,61.3,34.8,24.9,18.0,30,18,8,30.12,30.03,9,1,12,0.00
2012-11-7,82.6,67.3,57.2,40.2,31.2,19.7,46,28,11,30.09,29.97,10,0,14,0.00
2012-11-8,67.9,57.3,47.3,53.3,46.3,33.8,86,68,42,30.08,29.89,14,1,17,0.04
2012-11-9,56.5,49.9,43.1,50.1,38.9,26.2,87,68,32,29.93,29.84,18,3,21,0.05
2012-11-10,57.2,46.9,38.9,37.5,29.9,17.0,79,55,22,30.12,29.93,15,1,18,0.01
2012-11-11,64.7,50.0,37.9,27.7,12.0,3.9,63,25,10,30.26,30.11,14,1,20,0.00
2012-11-12,73.7,56.9,43.3,10.7,-0.7,-15.3,23,10,4,30.23,30.09,19,1,23,0.00
2012-11-13,81.2,64.0,50.2,24.9,1.8,-13.0,23,9,3,30.14,30.03,14,1,17,0.00
2012-11-14,79.2,65.5,54.1,21.0,6.1,-2.8,16,10,5,30.08,30.00,14,1,16,0.00
2012-11-15,67.9,59.8,52.6,39.0,19.0,6.3,45,21,11,30.11,30.03,7,0,10,0.00
2012-11-16,70.6,58.8,49.1,46.5,29.1,13.3,76,35,19,30.12,30.02,7,0,8,0.00
2012-11-17,64.5,57.2,52.6,52.9,48.8,44.3,86,74,56,30.11,30.04,10,0,13,0.06
2012-11-18,66.6,57.5,51.0,49.1,47.2,43.0,83,70,45,30.17,30.07,10,0,13,0.00
2012-11-19,70.9,56.6,47.0,44.4,40.2,32.5,78,57,25,30.22,30.14,7,0,9,0.00
2012-11-20,76.1,60.4,50.4,42.4,32.2,20.7,58,37,13,30.15,30.03,5,0,8,0.00
2012-11-21,74.2,59.2,49.1,42.7,34.7,20.0,60,42,22,30.09,30.01,6,0,8,0.00
2012-11-22,77.9,62.5,50.2,41.0,32.4,25.3,57,34,20,30.14,30.04,14,0,17,0.00
2012-11-23,84.1,67.4,56.0,33.4,23.3,12.4,32,20,9,30.17,30.09,10,0,14,0.00
2012-11-24,85.9,70.6,60.9,38.1,22.8,7.1,29,17,10,30.12,29.97,17,1,17,0.00
2012-11-25,80.7,66.4,55.0,35.1,25.8,19.4,34,22,11,29.98,29.90,8,0,9,0.00
2012-11-26,76.3,61.2,50.2,36.6,30.4,22.2,48,32,14,30.11,29.97,8,0,10,0.00
2012-11-27,77.0,63.3,50.2,45.7,27.8,22.4,80,28,14,30.16,30.04,9,0,13,0.00
2012-11-28,69.1,55.3,43.3,45.4,38.6,30.4,82,55,32,30.20,30.08,8,0,17,0.00
2012-11-29,67.4,57.2,52.2,55.1,49.6,41.4,88,76,58,30.21,30.13,6,0,9,0.04
2012-11-30,66.9,58.8,55.0,55.5,52.1,47.6,87,79,57,30.16,30.07,11,1,16,0.06
2012-12-1,66.8,58.4,54.4,54.9,50.3,47.0,89,75,51,30.17,30.09,9,0,10,0.01
2012-12-2,62.0,56.9,52.9,52.4,50.4,47.7,86,79,67,30.12,30.05,11,0,12,0.00
2012-12-3,68.3,58.1,51.6,55.1,50.4,45.0,88,76,53,30.18,30.10,6,0,9,0.01
2012-12-4,74.2,59.8,48.3,51.4,41.6,22.9,88,57,24,30.23,30.14,7,0,12,0.00
2012-12-5,78.8,63.5,52.8,41.3,25.9,10.9,52,26,11,30.15,30.01,6,0,12,0.00
2012-12-6,69.8,57.3,49.6,46.6,41.0,35.1,70,55,39,30.02,29.88,8,0,10,0.00
2012-12-7,75.6,60.8,51.6,42.6,34.5,24.1,65,39,20,29.98,29.91,8,0,13,0.00
2012-12-8,73.2,59.2,50.1,36.9,28.8,21.1,49,33,16,29.98,29.90,8,0,12,0.00
2012-12-9,72.8,58.2,47.4,35.8,26.5,16.7,52,31,16,30.12,29.96,8,0,10,0.00
2012-12-10,72.7,59.5,49.5,27.8,20.0,16.2,31,22,13,30.13,30.04,7,0,10,0.00
2012-12-11,74.0,59.7,48.6,29.4,21.1,13.5,35,23,11,30.06,29.95,9,1,13,0.00
2012-12-12,63.7,52.1,40.1,42.8,31.8,14.5,74,48,25,29.98,29.85,11,0,16,0.00
2012-12-13,50.7,47.3,42.6,45.5,42.4,37.5,87,83,72,29.85,29.72,7,0,10,0.97
2012-12-14,50.5,43.9,40.3,40.9,35.1,29.7,82,72,48,29.96,29.74,17,1,23,0.01
2012-12-15,54.1,45.3,40.8,42.4,35.4,26.3,88,70,36,30.07,29.92,12,0,16,0.13
2012-12-16,52.8,47.7,42.6,45.2,41.1,34.9,88,78,61,30.14,30.06,6,0,9,0.02
2012-12-17,59.0,51.9,47.7,49.3,46.2,44.2,89,81,61,30.14,30.00,7,0,10,0.01
2012-12-18,53.1,47.8,36.0,47.5,41.1,19.8,88,78,49,30.00,29.79,24,2,29,0.06
2012-12-19,55.6,42.6,32.2,24.2,14.9,5.0,63,35,16,30.22,29.95,18,1,22,0.00
2012-12-20,65.5,50.0,38.0,16.7,6.6,-4.4,34,17,10,30.21,30.06,26,6,31,0.00
2012-12-21,64.8,52.4,43.3,27.5,8.0,-8.9,31,18,6,30.09,30.01,11,0,14,0.00
2012-12-22,60.2,49.5,41.9,34.7,20.1,3.3,70,34,17,30.17,30.03,7,0,10,0.00
2012-12-23,58.0,50.1,43.2,42.2,38.7,33.3,78,65,49,30.17,30.08,9,0,16,0.00
2012-12-24,57.5,50.1,44.8,51.6,43.6,38.4,88,79,59,30.10,29.98,14,1,18,0.12
2012-12-25,58.7,48.5,41.5,38.5,30.7,20.6,80,52,25,30.08,29.97,15,0,18,0.00
2012-12-26,52.3,45.8,40.8,43.3,36.9,27.4,86,72,54,29.97,29.89,23,2,28,0.13
2012-12-27,55.1,44.6,37.0,36.4,32.3,25.6,81,64,35,30.07,29.91,10,0,14,0.00
2012-12-28,59.8,46.4,35.2,28.9,18.9,13.0,67,36,17,30.13,30.03,24,2,26,0.00
2012-12-29,53.5,44.4,37.8,40.2,29.1,16.1,87,58,30,30.05,29.93,10,0,10,0.25
2012-12-30,47.3,39.6,34.3,38.7,33.7,29.5,84,80,59,30.01,29.86,12,0,18,0.10
2012-12-31,53.8,41.3,32.9,35.3,28.3,22.2,81,62,30,30.19,30.01,9,0,12,0.00
2013-1-1,56.6,45.1,37.6,30.9,22.2,11.2,65,42,21,30.18,30.06,20,1,21,0.00